[ hide orbit diagram ]
For accurate long-term ephemerides, please instead use our Horizons system.This orbit viewer was implemented using two-body methods, and hence should not be used for determining accurate long-term trajectories (over several years or decades) or planetary encounter circumstances.
Orbital Elements at Epoch 2459000.5 (2020-May-31.0) TDB
Reference: JPL 22 (heliocentric ecliptic J2000)
Element | Value | Uncertainty (1-sigma) | Units |
e | .09788859055347214 | 3.9747e-08 | |
a | 3.226570385782292 | 2.6162e-08 | au |
q | 2.910725958396491 | 1.2695e-07 | au |
i | 19.02791140673234 | 6.2051e-06 | deg |
node | 332.9065901695674 | 1.315e-05 | deg |
peri | 81.98600005598534 | 3.8975e-05 | deg |
M | 72.14804697852188 | 3.3496e-05 | deg |
tp | 2458576.239870056692 (2019-Apr-02.73987006) | 0.00019774 | TDB |
period | 2116.947764713008 5.80 | 2.5747e-05 7.049e-08 | d yr |
n | .1700561563212707 | 2.0683e-09 | deg/d |
Q | 3.542414813168093 | 2.8722e-08 | au |
|
| | Orbit Determination Parameters
Additional Information
|
[ show covariance matrix ]
Physical Parameter Table
Parameter |
Symbol |
Value |
Units |
Sigma |
Reference |
Notes |
absolute magnitude |
H |
14.1 |
|
n/a |
MPO453832 |
|
diameter |
diameter |
9.620 |
km |
0.130 |
urn:nasa:pds:neowise_diameters_albedos::2.0[mainbelt] (http://adsabs.harvard.edu/abs/2011ApJ...741...68M) |
|
geometric albedo |
albedo |
0.053 |
|
0.004 |
urn:nasa:pds:neowise_diameters_albedos::2.0[mainbelt] (http://adsabs.harvard.edu/abs/2011ApJ...741...68M) |
|
|
134862 (2000 PE2) Discovered 2000-Aug-01 by LINEAR at Socorro |
Reference: 20060907/Numbers.arc | Last Updated: 2006-09-10 |
|
[ show close-approach data ]
|